Location: Unspecified
(0.0000°N, 0.0000°E)
Time: 05:17:58
(UTC+02:00)

Vanguard 3 - All Passes

Search period start: 22 June 2018 00:00
Search period end: 02 July 2018 00:00
Orbit: 508 x 3264 km, 33.3° (Epoch: 21 June)

Date Brightness Start Highest point End Pass type
(mag) Time Alt. Az. Time Alt. Az. Time Alt. Az.
22 Jun - 02:00:51 10° WNW 02:03:07 15° NNW 02:05:26 10° N night (unlit)
22 Jun - 08:43:33 10° N 08:51:33 19° NNE 09:01:59 10° ENE daylight
22 Jun - 10:53:15 10° NW 11:07:49 56° NE 11:27:13 10° ESE daylight
22 Jun - 13:06:58 10° WNW 13:25:02 68° SW 13:44:09 10° SE daylight
22 Jun - 15:27:24 10° W 15:43:23 30° SSW 15:56:57 10° SSE daylight
22 Jun - 17:59:50 10° SSW 18:03:01 11° SSW 18:05:58 10° S daylight
22 Jun - 22:33:31 10° SSW 22:37:33 17° SSE 22:40:40 10° ESE visible
23 Jun - 00:45:30 10° WSW 00:49:40 48° NW 00:53:12 10° NE night (unlit)
23 Jun - 09:39:49 10° NNW 09:51:24 36° NE 10:07:51 10° E daylight
23 Jun - 11:51:26 10° NW 12:07:42 88° NE 12:27:59 10° SE daylight
23 Jun - 14:08:00 10° W 14:25:40 44° SSW 14:42:37 10° SE daylight
23 Jun - 16:34:01 10° WSW 16:45:05 18° SSW 16:54:20 10° SSE daylight
23 Jun - 21:19:54 10° S 21:22:37 12° SSE 21:24:56 10° SE visible
23 Jun - 23:30:53 10° SW 23:36:16 53° SSE 23:40:04 10° ENE night (unlit)
24 Jun - 01:47:13 10° NW 01:47:35 10° NNW 01:47:58 10° NNW night (unlit)
24 Jun - 08:27:33 10° N 08:35:26 21° NE 08:46:08 10° ENE daylight
24 Jun - 10:37:06 10° NW 10:50:54 63° NE 11:10:29 10° ESE daylight
24 Jun - 12:50:51 10° WNW 13:08:00 61° SW 13:27:21 10° SE daylight
24 Jun - 15:11:40 10° WSW 15:26:59 27° SSW 15:40:34 10° SSE daylight
24 Jun - 17:43:10 10° SSW 17:47:35 11° SSW 17:51:33 10° S daylight
24 Jun - 22:16:25 10° SSW 22:22:13 26° SSE 22:26:11 10° E visible
25 Jun - 00:29:55 10° WSW 00:34:06 32° NW 00:37:29 10° NNE night (unlit)
25 Jun - 09:23:46 10° NNW 09:34:49 40° NE 09:51:21 10° ESE daylight
25 Jun - 11:35:21 10° WNW 11:50:41 84° SW 12:11:04 10° SE daylight
25 Jun - 13:52:08 10° W 14:08:56 39° SSW 14:25:55 10° SSE daylight
25 Jun - 16:18:28 10° SW 16:29:15 17° SSW 16:38:29 10° SSE daylight
25 Jun - 18:48:56 10° S 18:50:02 10° S 18:51:05 10° S daylight
25 Jun - 21:01:42 10° SSW 21:07:19 17° SSE 21:11:26 10° ESE visible
25 Jun - 23:14:36 10° SW 23:20:47 80° SE 23:24:48 10° ENE visible
26 Jun - 08:11:33 10° N 08:19:17 22° NE 08:30:10 10° E daylight
26 Jun - 10:21:05 10° NW 10:34:02 70° NE 10:53:35 10° ESE daylight
26 Jun - 12:34:55 10° WNW 12:51:07 55° SSW 13:10:25 10° SE daylight
26 Jun - 14:56:07 10° WSW 15:10:43 25° SSW 15:24:10 10° SSE daylight
26 Jun - 17:26:16 10° SSW 17:32:10 12° S 17:37:19 10° SSE daylight
26 Jun - 19:46:17 10° SSW 19:51:33 14° S 19:55:44 10° SE daylight
26 Jun - 21:59:27 10° SW 22:06:47 37° SSE 22:11:22 10° E visible
27 Jun - 00:14:24 10° W 00:18:28 24° NW 00:21:40 10° NNE night (unlit)
27 Jun - 09:07:48 10° NNW 09:18:14 44° NE 09:34:41 10° ESE daylight
27 Jun - 11:19:25 10° WNW 11:33:47 76° SW 11:54:00 10° SE daylight
27 Jun - 13:36:29 10° W 13:52:20 35° SSW 14:09:06 10° SSE daylight
27 Jun - 16:02:53 10° SW 16:13:30 17° SSW 16:22:46 10° SSE daylight
27 Jun - 18:29:10 10° SSW 18:34:43 13° S 18:39:21 10° SSE daylight
27 Jun - 20:44:05 10° SSW 20:51:56 24° SSE 20:57:08 10° ESE visible
27 Jun - 22:58:20 10° WSW 23:05:11 73° NW 23:09:27 10° NE visible
28 Jun - 07:55:37 10° N 08:03:06 24° NE 08:14:04 10° E daylight
28 Jun - 10:05:11 10° NW 10:17:16 78° NE 10:36:33 10° ESE daylight
28 Jun - 12:19:11 10° W 12:34:21 48° SSW 12:53:20 10° SE daylight
28 Jun - 14:40:44 10° WSW 14:54:34 23° SSW 15:07:45 10° SSE daylight
28 Jun - 17:09:14 10° SSW 17:16:44 14° S 17:23:08 10° SSE daylight
28 Jun - 19:28:08 10° SSW 19:36:10 19° SSE 19:41:57 10° SE daylight
28 Jun - 21:42:32 10° SW 21:51:17 52° SSE 21:56:22 10° ENE visible
28 Jun - 23:58:59 10° W 00:02:46 19° NW 00:05:45 10° N visible
29 Jun - 08:51:55 10° NNW 09:01:42 50° NE 09:17:54 10° ESE daylight
29 Jun - 11:03:39 10° WNW 11:17:02 67° SW 11:36:47 10° SE daylight
29 Jun - 13:21:02 10° W 13:35:54 31° SSW 13:52:14 10° SSE daylight
29 Jun - 15:47:12 10° SW 15:57:49 16° S 16:07:15 10° SSE daylight
29 Jun - 18:11:03 10° SSW 18:19:19 16° S 18:25:47 10° SE daylight
29 Jun - 20:26:38 10° SW 20:36:28 32° SSE 20:42:29 10° E visible
29 Jun - 22:42:03 10° WSW 22:49:29 55° NW 22:54:01 10° NE visible
30 Jun - 07:39:42 10° NNW 07:46:54 27° NE 07:57:51 10° E visible
30 Jun - 09:49:24 10° NW 10:00:38 87° NE 10:19:22 10° SE daylight
30 Jun - 12:03:39 10° W 12:17:47 43° SSW 12:36:09 10° SE daylight
30 Jun - 14:25:29 10° WSW 14:38:34 21° SSW 14:51:23 10° SSE daylight
30 Jun - 16:52:07 10° SSW 17:01:16 15° S 17:08:55 10° SSE daylight
30 Jun - 19:10:18 10° SSW 19:20:41 24° SSE 19:27:40 10° ESE daylight
30 Jun - 21:25:39 10° SW 21:35:40 70° SSE 21:41:12 10° ENE visible
30 Jun - 23:43:41 10° WNW 23:47:01 15° NW 23:49:43 10° N visible
01 Jul - 06:30:19 10° NNE 06:32:23 11° NE 06:34:41 10° NE visible
01 Jul - 08:36:09 10° NW 08:45:15 56° NE 09:01:00 10° ESE daylight
01 Jul - 10:48:03 10° WNW 11:00:28 59° SSW 11:19:27 10° SE daylight
01 Jul - 13:05:48 10° WSW 13:19:37 28° SSW 13:35:17 10° SSE daylight
01 Jul - 15:31:22 10° SW 15:42:11 17° S 15:51:55 10° SSE daylight
01 Jul - 17:53:12 10° SSW 18:03:48 20° SSE 18:11:41 10° SE daylight
01 Jul - 20:09:14 10° SW 20:20:52 42° SSE 20:27:35 10° E daylight
01 Jul - 22:25:47 10° WSW 22:33:42 43° NW 22:38:29 10° NNE visible
